�������l�o���
Date,Time,MP-1(��Sv/h),MP-2(��Sv/h),MP-3(��Sv/h),MP-4(��Sv/h),MP-5(��Sv/h),MP-6(��Sv/h),MP-7(��Sv/h),MP-8(��Sv/h),����,����(m/s),���J
2018/07/26,00:00,0.901,1.292,0.911,1.621,1.157,0.483,0.848,0.801,��쐼,3.0,��
2018/07/26,00:10,0.900,1.293,0.910,1.622,1.158,0.483,0.850,0.801,��,2.6,��
2018/07/26,00:20,0.900,1.293,0.908,1.621,1.160,0.484,0.850,0.798,��,2.0,��
2018/07/26,00:30,0.901,1.297,0.906,1.623,1.157,0.485,0.848,0.802,��,2.6,��
2018/07/26,00:40,0.901,1.293,0.910,1.622,1.158,0.483,0.849,0.800,��쓌,2.2,��
2018/07/26,00:50,0.900,1.294,0.909,1.624,1.157,0.483,0.849,0.801,��,2.0,��
2018/07/26,01:00,0.903,1.296,0.909,1.621,1.157,0.483,0.849,0.800,��쓌,2.3,��
2018/07/26,01:10,0.901,1.295,0.909,1.620,1.157,0.484,0.849,0.801,�쓌,2.3,��
2018/07/26,01:20,0.902,1.296,0.909,1.622,1.157,0.483,0.848,0.801,��쓌,3.2,��
2018/07/26,01:30,0.901,1.295,0.909,1.620,1.158,0.484,0.847,0.800,�쓌,2.8,��
2018/07/26,01:40,0.900,1.293,0.911,1.621,1.157,0.483,0.850,0.801,��쓌,3.0,��
2018/07/26,01:50,0.900,1.292,0.907,1.622,1.156,0.483,0.849,0.802,��쓌,3.6,��
2018/07/26,02:00,0.902,1.294,0.911,1.621,1.158,0.484,0.849,0.802,��쓌,3.3,��
2018/07/26,02:10,0.899,1.292,0.910,1.623,1.155,0.483,0.850,0.801,��쓌,2.9,��
2018/07/26,02:20,0.901,1.292,0.907,1.620,1.157,0.483,0.848,0.801,��,2.6,��
2018/07/26,02:30,0.901,1.293,0.906,1.622,1.157,0.482,0.847,0.802,��,3.0,��
2018/07/26,02:40,0.899,1.290,0.910,1.621,1.157,0.483,0.849,0.800,��,2.0,��
2018/07/26,02:50,0.901,1.292,0.909,1.621,1.154,0.484,0.849,0.801,��쓌,2.3,��
2018/07/26,03:00,0.901,1.293,0.908,1.622,1.157,0.483,0.849,0.802,��쓌,1.2,��
2018/07/26,03:10,0.902,1.294,0.909,1.620,1.156,0.483,0.850,0.802,��쓌,1.1,��
2018/07/26,03:20,0.901,1.292,0.910,1.622,1.155,0.484,0.849,0.800,�쓌,2.0,��
2018/07/26,03:30,0.902,1.294,0.910,1.621,1.158,0.484,0.849,0.800,��쓌,2.3,��
2018/07/26,03:40,0.902,1.293,0.908,1.624,1.156,0.484,0.848,0.801,�쓌,2.5,��
2018/07/26,03:50,0.902,1.291,0.907,1.621,1.155,0.484,0.847,0.801,�쓌,2.6,��
2018/07/26,04:00,0.902,1.295,0.907,1.620,1.158,0.484,0.849,0.802,�쓌,2.9,��
2018/07/26,04:10,0.902,1.291,0.907,1.622,1.154,0.482,0.848,0.802,��쓌,3.2,��
2018/07/26,04:20,0.903,1.296,0.907,1.623,1.156,0.484,0.849,0.801,��쓌,3.5,��
2018/07/26,04:30,0.902,1.293,0.907,1.623,1.156,0.484,0.848,0.801,��쓌,2.0,��
2018/07/26,04:40,0.902,1.296,0.907,1.623,1.157,0.484,0.849,0.800,��,2.0,��
2018/07/26,04:50,0.904,1.290,0.908,1.623,1.155,0.483,0.848,0.801,��,2.3,��
2018/07/26,05:00,0.900,1.294,0.909,1.622,1.157,0.485,0.849,0.801,��쓌,2.5,��
2018/07/26,05:10,0.902,1.292,0.909,1.620,1.154,0.484,0.848,0.801,��,2.5,��
2018/07/26,05:20,0.900,1.295,0.908,1.620,1.157,0.483,0.849,0.801,��,2.5,��
2018/07/26,05:30,0.902,1.294,0.908,1.622,1.157,0.484,0.850,0.800,��,2.3,��
2018/07/26,05:40,0.903,1.295,0.908,1.622,1.159,0.483,0.849,0.802,��쓌,2.0,��
2018/07/26,05:50,0.901,1.297,0.908,1.622,1.157,0.484,0.849,0.800,��,1.5,��
2018/07/26,06:00,0.901,1.296,0.907,1.623,1.156,0.484,0.848,0.801,�쓌,1.7,��
2018/07/26,06:10,0.904,1.296,0.908,1.623,1.158,0.483,0.851,0.801,�쓌,2.8,��
2018/07/26,06:20,0.903,1.296,0.909,1.620,1.156,0.485,0.849,0.802,��쓌,3.0,��
2018/07/26,06:30,0.904,1.296,0.907,1.622,1.156,0.483,0.850,0.800,��쓌,3.0,��
2018/07/26,06:40,0.903,1.295,0.909,1.620,1.154,0.483,0.849,0.800,�쓌,3.5,��
2018/07/26,06:50,0.902,1.295,0.906,1.620,1.156,0.485,0.850,0.801,��쓌,3.1,��
2018/07/26,07:00,0.902,1.295,0.907,1.618,1.157,0.484,0.850,0.802,��쓌,2.8,��
2018/07/26,07:10,0.903,1.295,0.908,1.624,1.159,0.482,0.849,0.802,��쓌,3.0,��
2018/07/26,07:20,0.900,1.289,0.909,1.624,1.158,0.482,0.848,0.801,�쓌,3.4,��
2018/07/26,07:30,0.899,1.290,0.909,1.623,1.159,0.482,0.848,0.802,��쓌,2.6,��
2018/07/26,07:40,0.900,1.293,0.906,1.620,1.156,0.483,0.848,0.801,��쓌,3.3,��
2018/07/26,07:50,0.900,1.291,0.908,1.620,1.159,0.484,0.848,0.801,��쓌,2.3,��
2018/07/26,08:00,0.901,1.291,0.909,1.621,1.157,0.483,0.848,0.800,��쓌,3.8,��
2018/07/26,08:10,0.902,1.293,0.908,1.621,1.158,0.483,0.850,0.800,�쓌,3.5,��
2018/07/26,08:20,0.903,1.294,0.907,1.622,1.159,0.486,0.850,0.798,�쓌,3.5,��
2018/07/26,08:30,0.903,1.292,0.908,1.621,1.158,0.485,0.848,0.799,���쓌,3.7,��
2018/07/26,08:40,0.901,1.292,0.908,1.623,1.157,0.486,0.850,0.797,�쓌,2.9,��
2018/07/26,08:50,0.900,1.292,0.908,1.621,1.157,0.484,0.849,0.797,�쓌,3.8,��
2018/07/26,09:00,0.900,1.290,0.907,1.623,1.158,0.486,0.847,0.800,���쓌,3.6,��
2018/07/26,09:10,0.901,1.286,0.909,1.625,1.158,0.485,0.850,0.797,�쓌,4.2,��
2018/07/26,09:20,0.903,1.290,0.908,1.622,1.160,0.483,0.849,0.798,���쓌,3.7,��
2018/07/26,09:30,0.902,1.289,0.908,1.623,1.158,0.484,0.848,0.797,�쓌,3.9,��
2018/07/26,09:40,0.903,1.290,0.906,1.623,1.160,0.483,0.848,0.798,��쓌,3.9,��
2018/07/26,09:50,0.904,1.292,0.908,1.624,1.156,0.482,0.848,0.799,�쓌,4.1,��
2018/07/26,10:00,0.904,1.292,0.908,1.622,1.158,0.484,0.848,0.797,��쓌,3.6,��
2018/07/26,10:10,0.904,1.292,0.909,1.623,1.161,0.482,0.847,0.798,�쓌,4.6,��
2018/07/26,10:20,0.905,1.290,0.909,1.623,1.157,0.484,0.848,0.797,�쓌,4.2,��
2018/07/26,10:30,0.904,1.291,0.908,1.625,1.158,0.484,0.848,0.800,��쓌,5.6,��
2018/07/26,10:40,0.906,1.295,0.907,1.625,1.160,0.483,0.847,0.799,�쓌,4.5,��
2018/07/26,10:50,0.904,1.294,0.907,1.624,1.162,0.485,0.847,0.799,��쓌,3.8,��
2018/07/26,11:00,0.907,1.294,0.906,1.625,1.160,0.485,0.849,0.799,�쓌,3.3,��
2018/07/26,11:10,0.907,1.294,0.908,1.625,1.161,0.484,0.848,0.800,��쓌,3.6,��
2018/07/26,11:20,0.903,1.292,0.906,1.625,1.160,0.484,0.848,0.800,�쓌,3.3,��
2018/07/26,11:30,0.904,1.293,0.907,1.620,1.160,0.485,0.850,0.800,���쓌,4.7,��
2018/07/26,11:40,0.903,1.294,0.908,1.621,1.161,0.487,0.849,0.801,�쓌,3.9,��
2018/07/26,11:50,0.902,1.295,0.908,1.623,1.160,0.484,0.852,0.799,���쓌,4.3,��
2018/07/26,12:00,0.903,1.293,0.907,1.624,1.160,0.485,0.848,0.801,�쓌,4.1,��
2018/07/26,12:10,0.900,1.296,0.908,1.625,1.163,0.485,0.848,0.799,�쓌,4.7,��
2018/07/26,12:20,0.901,1.298,0.908,1.622,1.162,0.482,0.851,0.801,���쓌,4.5,��
2018/07/26,12:30,0.904,1.297,0.907,1.625,1.162,0.485,0.851,0.801,�쓌,4.3,��
2018/07/26,12:40,0.901,1.298,0.907,1.625,1.165,0.484,0.848,0.800,��쓌,4.7,��
2018/07/26,12:50,0.899,1.296,0.908,1.624,1.163,0.484,0.850,0.798,�쓌,4.1,��
2018/07/26,13:00,0.902,1.298,0.907,1.626,1.161,0.485,0.850,0.802,��쓌,4.4,��
2018/07/26,13:10,0.902,1.298,0.908,1.622,1.164,0.485,0.850,0.800,��쓌,4.6,��
2018/07/26,13:20,0.901,1.297,0.908,1.627,1.164,0.486,0.850,0.801,��쓌,4.4,��
2018/07/26,13:30,0.903,1.298,0.909,1.625,1.159,0.486,0.852,0.802,��쓌,4.7,��
2018/07/26,13:40,0.903,1.297,0.909,1.623,1.165,0.484,0.850,0.801,��쓌,4.3,��
2018/07/26,13:50,0.902,1.297,0.908,1.624,1.163,0.486,0.850,0.801,��쓌,5.0,��
2018/07/26,14:00,0.899,1.296,0.907,1.624,1.161,0.485,0.850,0.801,��쓌,4.4,��
2018/07/26,14:10,0.903,1.297,0.909,1.628,1.162,0.485,0.851,0.801,��쓌,4.4,��
2018/07/26,14:20,0.906,1.293,0.909,1.627,1.165,0.485,0.850,0.802,��쓌,4.7,��
2018/07/26,14:30,0.902,1.297,0.910,1.625,1.162,0.485,0.850,0.801,��쓌,5.1,��
2018/07/26,14:40,0.902,1.296,0.908,1.626,1.162,0.485,0.852,0.801,��쓌,4.6,��
2018/07/26,14:50,0.902,1.297,0.910,1.624,1.164,0.484,0.851,0.800,��쓌,5.8,��
2018/07/26,15:00,0.903,1.299,0.909,1.624,1.162,0.485,0.851,0.802,�쓌,6.0,��
2018/07/26,15:10,0.903,1.299,0.908,1.625,1.163,0.487,0.851,0.802,��쓌,5.4,��
2018/07/26,15:20,0.903,1.297,0.906,1.627,1.163,0.485,0.849,0.803,��쓌,6.6,��
2018/07/26,15:30,0.903,1.300,0.910,1.627,1.165,0.486,0.851,0.799,��쓌,4.7,��
2018/07/26,15:40,0.902,1.301,0.906,1.626,1.165,0.485,0.852,0.801,��쓌,4.2,��
2018/07/26,15:50,0.903,1.298,0.909,1.627,1.164,0.486,0.851,0.801,��쓌,5.2,��
2018/07/26,16:00,0.903,1.300,0.907,1.625,1.162,0.485,0.850,0.801,��쓌,5.3,��
2018/07/26,16:10,0.901,1.300,0.909,1.627,1.162,0.485,0.851,0.801,��쓌,5.1,��
2018/07/26,16:20,0.903,1.300,0.910,1.626,1.163,0.486,0.850,0.801,��쓌,5.3,��
2018/07/26,16:30,0.902,1.299,0.907,1.627,1.165,0.483,0.852,0.800,��쓌,6.2,��
2018/07/26,16:40,0.902,1.300,0.907,1.628,1.165,0.486,0.851,0.799,��쓌,5.4,��
2018/07/26,16:50,0.904,1.301,0.905,1.628,1.164,0.487,0.851,0.802,��쓌,6.7,��
2018/07/26,17:00,0.900,1.299,0.909,1.625,1.165,0.486,0.850,0.801,��쓌,5.1,��
2018/07/26,17:10,0.901,1.299,0.909,1.623,1.166,0.486,0.849,0.800,��쓌,5.6,��
2018/07/26,17:20,0.903,1.297,0.909,1.625,1.165,0.486,0.849,0.802,��쓌,5.1,��
2018/07/26,17:30,0.902,1.300,0.911,1.625,1.165,0.485,0.851,0.802,��쓌,4.8,��
2018/07/26,17:40,0.904,1.300,0.908,1.624,1.165,0.487,0.851,0.802,��쓌,4.9,��
2018/07/26,17:50,0.903,1.300,0.908,1.625,1.164,0.486,0.849,0.800,��쓌,4.7,��
2018/07/26,18:00,0.900,1.299,0.909,1.625,1.164,0.486,0.850,0.800,��쓌,4.4,��
2018/07/26,18:10,0.902,1.300,0.908,1.625,1.165,0.486,0.849,0.802,��쓌,4.5,��
2018/07/26,18:20,0.901,1.299,0.908,1.626,1.163,0.486,0.848,0.802,��쓌,4.2,��
2018/07/26,18:30,0.902,1.300,0.907,1.630,1.167,0.486,0.850,0.801,��,3.2,��
2018/07/26,18:40,0.900,1.303,0.909,1.625,1.164,0.487,0.850,0.802,��,4.2,��
2018/07/26,18:50,0.900,1.301,0.908,1.627,1.163,0.486,0.848,0.802,��,4.6,��
2018/07/26,19:00,0.901,1.302,0.908,1.630,1.162,0.485,0.851,0.800,��,3.8,��
2018/07/26,19:10,0.900,1.300,0.909,1.629,1.164,0.486,0.850,0.802,��,4.3,��
2018/07/26,19:20,0.903,1.299,0.908,1.627,1.166,0.486,0.849,0.801,��쓌,4.3,��
2018/07/26,19:30,0.901,1.303,0.911,1.626,1.164,0.486,0.848,0.802,��쓌,4.9,��
2018/07/26,19:40,0.902,1.300,0.913,1.627,1.166,0.486,0.851,0.802,��,4.5,��
2018/07/26,19:50,0.902,1.302,0.913,1.625,1.166,0.486,0.852,0.802,��쓌,4.1,��
2018/07/26,20:00,0.905,1.301,0.911,1.622,1.165,0.486,0.849,0.800,��,3.9,��
2018/07/26,20:10,0.902,1.302,0.912,1.623,1.165,0.486,0.851,0.801,��,3.0,��
2018/07/26,20:20,0.903,1.302,0.912,1.627,1.165,0.486,0.850,0.802,��,3.9,��
2018/07/26,20:30,0.902,1.302,0.910,1.631,1.164,0.486,0.848,0.803,��,2.9,��
2018/07/26,20:40,0.903,1.301,0.909,1.629,1.164,0.486,0.850,0.803,��,1.2,��
2018/07/26,20:50,0.904,1.302,0.912,1.630,1.163,0.487,0.849,0.803,�쐼,1.4,��
2018/07/26,21:00,0.902,1.301,0.911,1.629,1.162,0.487,0.851,0.803,��,2.9,��
2018/07/26,21:10,0.903,1.299,0.909,1.627,1.165,0.486,0.850,0.802,��쓌,3.9,��
2018/07/26,21:20,0.902,1.301,0.909,1.629,1.166,0.485,0.850,0.803,��쓌,3.8,��
2018/07/26,21:30,0.902,1.300,0.909,1.627,1.164,0.486,0.850,0.802,��쓌,3.7,��
2018/07/26,21:40,0.903,1.300,0.911,1.628,1.164,0.486,0.850,0.803,��쓌,3.3,��
2018/07/26,21:50,0.905,1.298,0.909,1.628,1.162,0.485,0.849,0.801,��쓌,2.3,��
2018/07/26,22:00,0.902,1.301,0.912,1.628,1.164,0.487,0.849,0.802,��,3.2,��
2018/07/26,22:10,0.904,1.301,0.912,1.628,1.163,0.486,0.850,0.802,��,3.4,��
2018/07/26,22:20,0.903,1.301,0.912,1.627,1.165,0.487,0.849,0.800,��,3.3,��
2018/07/26,22:30,0.903,1.300,0.912,1.629,1.164,0.485,0.849,0.804,��,3.8,��
2018/07/26,22:40,0.902,1.299,0.912,1.628,1.165,0.485,0.850,0.801,��,3.8,��
2018/07/26,22:50,0.902,1.300,0.910,1.629,1.164,0.486,0.849,0.801,��,3.7,��
2018/07/26,23:00,0.904,1.299,0.910,1.629,1.166,0.486,0.849,0.803,��,3.4,��
2018/07/26,23:10,0.901,1.301,0.910,1.627,1.162,0.487,0.850,0.803,��쐼,2.3,��
2018/07/26,23:20,0.904,1.298,0.913,1.630,1.162,0.486,0.850,0.802,��쐼,2.9,��
2018/07/26,23:30,0.903,1.297,0.911,1.628,1.164,0.487,0.849,0.803,��쐼,2.9,��
2018/07/26,23:40,0.903,1.297,0.911,1.626,1.166,0.485,0.850,0.801,��쐼,3.6,��
2018/07/26,23:50,0.903,1.296,0.909,1.630,1.162,0.485,0.850,0.801,��쐼,3.6,��
